Skip Page Navigation
NASA JPL Caltech
NASA Logo - Jet Propulsion Laboratory + View the NASA Portal
+ Center for Near-Earth Object Studies
JPL Home Earth Solar System Stars & Galaxies Technology
JPL Solar System Dynamics
BODIES ORBITS EPHEMERIDES TOOLS PHYSICAL DATA DISCOVERY FAQ SITE MAP
JPL Small-Body Database Browser
Search: [ help ]  
362836 (2012 BH)
Classification: Main-belt Asteroid          SPK-ID: 2362836
Ephemeris | Orbit Diagram | Orbital Elements | Mission Design | Physical Parameters | Discovery Circumstances | Close-Approach Data ]

[ show orbit diagram ]
Orbital Elements at Epoch 2459200.5 (2020-Dec-17.0) TDB
Reference: JPL 18 (heliocentric ecliptic J2000)
 Element Value Uncertainty (1-sigma)   Units 
e .07219492341837705 7.5017e-08  
a 3.096389154935281 5.9077e-08 au
q 2.872845577021235 2.6606e-07 au
i 8.09554589586182 6.0338e-06 deg
node 306.4289043277373 4.0871e-05 deg
peri 56.6291825837691 5.5657e-05 deg
M 330.3367891100435 3.9906e-05 deg
tp 2459364.482458020629
(2021-May-29.98245802)
0.00022242 TDB
period 1990.131314726083
5.45
5.6955e-05
1.559e-07
d
yr
n .1808925859998085 5.1769e-09 deg/d
Q 3.319932732849327 6.3342e-08 au
  Orbit Determination Parameters
   # obs. used (total)      207  
   data-arc span      5958 days (16.31 yr)  
   first obs. used      2004-07-17  
   last obs. used      2020-11-08  
   planetary ephem.      DE441  
   SB-pert. ephem.      SB441-N16  
   condition code      0  
   norm. resid. RMS      .57383  
   source      ORB  
   producer      Otto Matic  
   solution date      2021-Apr-14 09:41:00  

Additional Information
 Earth MOID = 1.87724 au 
 Jupiter MOID = 2.0832 au 
 T_jup = 3.204 
[ show covariance matrix ]

Ephemeris | Orbit Diagram | Orbital Elements | Mission Design | Physical Parameters | Discovery Circumstances | Close-Approach Data ]

Physical Parameter Table
Parameter Symbol Value Units Sigma Reference Notes
absolute magnitude H 16.02   n/a E2021B25  

362836 (2012 BH)          Discovered 2006-Dec-01 by Mt. Lemmon Survey at Mount Lemmon
Reference: Last Updated: 2013-04-29

[ show close-approach data ]
Ephemeris | Orbit Diagram | Orbital Elements | Mission Design | Physical Parameters | Discovery Circumstances | Close-Approach Data ]
ABOUT SSD CREDITS/AWARDS PRIVACY/COPYRIGHT GLOSSARY LINKS
FirstGov 2021-Jun-17 18:39 UT
(server date/time)  
NASA Home Page
Site Manager:   Ryan S. Park
Webmaster  Alan B. Chamberlin